Location: Caltech
(34.1382°N, 118.1253°W)
Time: 11:56:57
(UTC-07:00)

Iridium 12 - Visible Passes

Search period start: 27 September 2016 00:00
Search period end: 07 October 2016 00:00
Orbit: 776 x 779 km, 86.4° (Epoch: 26 September)

Date Brightness Start Highest point End Pass type
(mag) Time Alt. Az. Time Alt. Az. Time Alt. Az.
28 Sep 8.8 05:52:52 10° ESE 05:55:55 16° E 05:58:57 10° NE visible
28 Sep 8.4 19:46:34 10° NW 19:50:15 20° W 19:53:57 10° SW visible
29 Sep 7.3 19:12:10 10° NNW 19:16:58 38° W 19:21:44 10° SSW visible
01 Oct 8.2 05:51:47 10° SE 05:55:50 23° E 05:59:54 10° NNE visible
01 Oct 8.9 19:47:47 10° NW 19:50:10 13° W 19:52:33 10° WSW visible
02 Oct 9.0 05:20:46 10° E 05:22:38 12° E 05:24:30 10° ENE visible
02 Oct 8.1 19:12:42 10° NNW 19:16:57 26° W 19:21:10 10° SW visible
04 Oct 7.4 05:51:08 10° SSE 05:55:48 35° E 06:00:29 10° NNE visible
05 Oct 8.5 05:19:04 10° ESE 05:22:32 18° E 05:25:59 10° NE visible
05 Oct 8.6 19:13:32 10° NW 19:16:53 17° W 19:20:13 10° WSW visible
06 Oct 5.5 06:24:04 10° S 06:29:16 81° W 06:34:31 10° N visible
